Regional Weather Roundup
Issued by NWS

Home | Current Version | Previous Version | Graphics & Text | Print | Product List | Glossary On
Versions: 1 2 3 4 5 6 7 8 9 10 11 12 13 14 15 16 17 18 19 20 21 22 23 24 25 26 27 28 29 30 31 32 33 34 35 36 37 38 39 40 41 42 43 44 45 46 47 48 49 50
000
ASUS43 KLSX 301410
RWRMO

WEATHER SUMMARY FOR MISSOURI
NATIONAL WEATHER SERVICE SPRINGFIELD MO
900 AM CDT SUN AUG 30 2015

NOTE: "FAIR" INDICATES FEW OR NO CLOUDS BELOW 12,000 FEET WITH NO
       SIGNIFICANT WEATHER AND/OR OBSTRUCTIONS TO VISIBILITY.
       CURRENT SKY AND/OR WEATHER CONDITIONS ARE NOT AVAILABLE FOR
       CHILLICOTHE AND FARMINGTON.

MOZ001>031-035>038-043-044-053-054-301500-
...NORTHERN AND WESTERN MISSOURI...

CITY           SKY/WX    TMP DP  RH WIND       PRES   REMARKS
KANSAS CTY INT FOG       68  64  87 SE5       30.05R VSB 1/4
KANSAS C DTWN  FOG       69  69 100 E3        30.04R VSB 3/4
LEE`S SUMMIT   FOG       69  68  96 E6        30.06R VSB 1/2
ST JOSEPH      CLOUDY    65  64  97 N3        30.05R
CHILLICOTHE      N/A     69  68  96 NE3       30.07R
KIRKSVILLE     FOG       69  68  96 E6        30.08R VSB 1/4

$$
MOZ066>068-077>081-088>096-101>105-301500-
...SOUTHWEST MISSOURI...

CITY           SKY/WX    TMP DP  RH WIND       PRES   REMARKS
SPRINGFIELD    PTSUNNY   72  67  84 SE12      30.05R
JOPLIN         MOSUNNY   70  70 100 SE6       30.03R FOG

$$
MOZ032>034-039>042-045>050-055>058-069>072-301500-
...CENTRAL MISSOURI...

CITY           SKY/WX    TMP DP  RH WIND       PRES   REMARKS
COLUMBIA       PTSUNNY   72  69  90 S6        30.06S
JEFFERSON CITY CLOUDY    71  66  84 SE3       30.05R
ROLLA          CLOUDY    72  67  84 SW9       30.06R
SEDALIA        CLOUDY    71  69  93 E7        30.05S FOG
WHITEMAN AFB   CLOUDY    71  71 100 E5        30.03S
WARRENSBURG    CLOUDY    70  68  94 NE5       30.04S FOG
OSAGE BEACH    CLOUDY    70  64  83 CALM      30.06R

$$
MOZ051-052-059>065-301500-
...EAST CENTRAL MISSOURI...

CITY           SKY/WX    TMP DP  RH WIND       PRES   REMARKS
ST LOUIS INTL  CLOUDY    78  66  66 W6        30.07R
SPIRIT OF STL  PTSUNNY   72  69  90 CALM      30.05R
ST CHARLES     MOSUNNY   74  69  85 SW3       30.05R

$$
MOZ072>076-082>087-097>100-106>115-301500-
...SOUTH CENTRAL AND SOUTHEAST MISSOURI...

CITY           SKY/WX    TMP DP  RH WIND       PRES   REMARKS
CAPE GIRARDEAU PTSUNNY   74  71  91 SE7       30.07R
FARMINGTON     MOSUNNY   72  66  83 SE3       30.10S
POPLAR BLUFF   MOSUNNY   74  69  85 VRB3      30.05R
WEST PLAINS    CLOUDY    72  66  81 W3        30.09S

$$


USA.gov is the U.S. government's official web portal to all federal, state and local government web resources and services.